Regional Weather Roundup
Issued by NWS Mt. Holly, NJ

Home | Current Version | Previous Version | Text Only | Print | Product List | Glossary On
Versions: 1 2 3 4 5 6 7 8 9 10 11 12 13 14 15 16 17 18 19 20 21 22 23 24 25 26 27 28 29 30 31 32 33 34 35 36 37 38 39 40 41 42 43 44 45 46 47 48 49 50
000
ASUS41 KPHI 262110
RWRPHI

REGIONAL WEATHER ROUNDUP
NATIONAL WEATHER SERVICE MOUNT HOLLY NJ
400 PM EST WED NOV 26 2014

NOTE:  "FAIR" INDICATES FEW OR NO CLOUDS BELOW 12,000 FEET WITH NO
SIGNIFICANT WEATHER AND/OR OBSTRUCTIONS TO VISIBILITY.

 * = STATION DOES NOT REPORT PRECIPITATION (E.G. RAIN, SNOW, ETC.)
        OR FOG.

NJZ015>026-262200-
SOUTHERN NEW JERSEY

CITY           SKY/WX    TMP DP  RH WIND       PRES   REMARKS
POMONA         LGT RAIN  38  37  97 N18G25    29.70F WCI  28
RIO GRANDE*    CLOUDY    39  36  87 N13       29.70S WCI  32
MILLVILLE      LGT RAIN  38  35  89 N16       29.74F WCI  29
WRIGHTSTOWN    LGT RAIN  36  35  97 N16       29.76F WCI  26
MOUNT HOLLY    MIX PCPN  36  33  89 N16G23    29.78F WCI  26
TRENTON        LGT RAIN  35  31  85 N12       29.80F WCI  27

$$
NJZ001>014-262200-
NORTHERN NEW JERSEY

CITY           SKY/WX    TMP DP  RH WIND       PRES   REMARKS
SUSSEX         LGT SNOW  33  31  92 NE10      29.87F VSB 3/4 WCI  25
ANDOVER*         N/A     33  32  96 VRB7      29.85F WCI  27
MORRISTOWN     LGT SNOW  34  34 100 N7        29.86F WCI  28
NEWARK         LGT RAIN  34  33  96 N18G24    29.83F FOG     WCI  23
TETERBORO      LGT RAIN  36  32  87 N10G18    29.83F WCI  28
CALDWELL       LGT SNOW  33  30  88 VRB5      29.86F FOG     WCI  29
SOMERVILLE     LGT SNOW  34  31  88 N6        29.81F FOG     WCI  29
ALLAIRE*       CLOUDY    37  32  81 N16G24    29.74F WCI  28
TOMS RIVER*    CLOUDY    37  36  93 N9        29.74F WCI  31

$$
PAZ043-044-047-054-055-060>062-066>071-262200-
EASTERN PENNSYLVANIA

CITY           SKY/WX    TMP DP  RH WIND       PRES   REMARKS
PHILADELPHIA   LGT RAIN  37  33  85 N17G26    29.83R WCI  27
NORTH PHILA    LGT RAIN  36  31  82 N15G25    29.82F WCI  27
BLUE BELL      CLOUDY    34  34 100 N6        29.81F WCI  29
DOYLESTOWN     LGT SNOW  32  32 100 N12       29.82F FOG     WCI  23
QUAKERTOWN*    CLOUDY    32  32 100 N8        29.85F WCI  25
POTTSTOWN      LGT SNOW  33  31  92 N13G21    29.86F FOG     WCI  24
LANCASTER      LGT SNOW  33  31  92 NW12      29.90S FOG     WCI  24
COATESVILLE    LGT SNOW  32  32 100 N13       29.85R VSB 1   WCI  22
READING        LGT SNOW  34  32  92 N10       29.89F FOG     WCI  26
ALLENTOWN      LGT SNOW  34  30  86 N8        29.87F FOG     WCI  27
MOUNT POCONO   SNOW      30  27  88 N12       29.83F VSB 1/2 WCI  20
HAZLETON       SNOW      32  30  93 NW14      29.91F VSB 1/2 WCI  22
WILKES BARRE   LGT SNOW  33  30  88 NW8       29.92F VSB 1   WCI  26

$$
DEZALL-MDZ008-012-015-019-020-262200-
DELAWARE AND EASTERN MARYLAND

CITY           SKY/WX    TMP DP  RH WIND       PRES   REMARKS
WILMINGTON     LGT RAIN  37  33  85 N15G23    29.82F WCI  28
DOVER          LGT RAIN  38  38 100 N18       29.75S WCI  28
GEORGETOWN     LGT RAIN  40  38  93 N14G21    29.74F WCI  32
EASTON         RAIN      39  39 100 N13G18    29.86R WCI  32
PATUXENT       LGT SNOW  38  35  89 NW25G31   29.87R FOG     WCI  27
OCEAN CITY     RAIN      42  40  92 N16G25    29.69F
WALLOPS ISLAND LGT RAIN  41  40  96 N10G18    29.74R FOG
CAMBRIDGE      CLOUDY    39  36  87 NW16      29.82R WCI  30
SALISBURY      LGT RAIN  42  38  85 N12G20    29.74R FOG

$$
PAZ001-021-NYZ056-072-MDZ011-DCZ001-262200-
OTHER NEARBY LOCATIONS

CITY           SKY/WX    TMP DP  RH WIND       PRES   REMARKS
HARRISBURG     LGT SNOW  33  32  96 NW10      29.93F FOG     WCI  25
STATE COLLEGE  LGT SNOW  32  30  93 NE5       29.98R VSB 3/4 WCI  27
WILLIAMSPORT   LGT SNOW  33  30  88 W7        29.99R VSB 3/4 WCI  27
BINGHAMTON     HVY SNOW  30  28  92 N9        29.95F VSB 1/4 WCI  22
NEW YORK CITY  LGT RAIN  36  32  85 N15G22    29.85F FOG     WCI  27
BALTIMORE      LGT RAIN  35  33  92 NW8       29.91R FOG     WCI  29
WASHINGTON DC  FLURRIES  37  32  82 NW14      29.96R WCI  28

$$


USA.gov is the U.S. government's official web portal to all federal, state and local government web resources and services.